Weather History for KGNA - January, 2013

Change the Weather History Date:

Sunday, January 6, 2013

  Actual Average (KCKC) Record (KCKC)
Temperature  
Mean Temperature 24 °F -  
Max Temperature 30 °F 15 °F 37 °F (2012)
Min Temperature 18 °F 1 °F -31 °F (2014)
Degree Days  
Heating Degree Days 41    
Moisture  
Dew Point 14 °F    
Average Humidity 63    
Maximum Humidity 69    
Minimum Humidity 49    
Precipitation  
Precipitation 0.00 in - - ()
Sea Level Pressure  
Sea Level Pressure 30.11 in    
Wind  
Wind Speed 10 mph (WSW)    
Max Wind Speed 18 mph    
Max Gust Speed 31 mph    
Averages and records for this station are not official NWS values.
T = Trace of Precipitation, MM = Missing Value Source: NWS Daily Summary

Daily Weather History Graph

Daily Weather History Graph

Search for Another Location

Airport or City:

Trip Planner

Search our weather history database for the weather conditions in past years. The results will help you decide how hot, cold, wet, or windy it might be!

Date:

Astronomy

Jan. 06, 2013 Rise Set
Actual Time 7:49 AM CST 4:25 PM CST
Civil Twilight 7:13 AM CST 5:01 PM CST
Nautical Twilight 6:34 AM CST 5:40 PM CST
Astronomical Twilight 5:57 AM CST 6:17 PM CST
Moon 1:54 AM CST (1/6) 12:01 PM CST (1/6)
Length of Visible Light 9h 47m
Length of Day
8h 36m
Waning Crescent, 33% of the Moon is Illuminated
Jan 6
Waning Crescent
Jan 11
New
Jan 18
First Quarter
Jan 26
Full
Feb 3
Last Quarter

Hourly Weather History & Observations

Time (CST) Temp. Windchill Dew Point Humidity Pressure Visibility Wind Dir Wind Speed Gust Speed Precip Events Conditions
12:56 AM 27.0 °F 16.7 °F 17.1 °F 66% 29.94 in - NNW 11.5 mph 25.3 mph N/A   Unknown
1:56 AM 26.1 °F 13.6 °F 17.1 °F 69% 29.96 in - NNW 16.1 mph 31.1 mph N/A   Unknown
2:56 AM 26.1 °F 15.6 °F 17.1 °F 69% 29.99 in - North 11.5 mph 21.9 mph N/A   Unknown
3:56 AM 25.0 °F 14.2 °F 16.0 °F 69% 30.01 in - NNW 11.5 mph 23.0 mph N/A   Unknown
4:56 AM 24.1 °F 14.4 °F 15.1 °F 69% 30.04 in - NNW 9.2 mph 20.7 mph N/A   Unknown
5:56 AM 21.0 °F 9.9 °F 12.0 °F 68% 30.07 in - NNW 10.4 mph 19.6 mph N/A   Unknown
6:56 AM 19.9 °F - 10.0 °F 65% 30.12 in - Calm Calm - N/A   Unknown
7:56 AM 18.0 °F 12.7 °F 9.0 °F 68% 30.14 in - NE 3.5 mph - N/A   Unknown
8:56 AM 19.9 °F 14.9 °F 9.0 °F 62% 30.17 in - Variable 3.5 mph - N/A   Unknown
9:56 AM 21.0 °F 11.4 °F 8.1 °F 57% 30.19 in - NNW 8.1 mph - N/A   Unknown
10:56 AM 23.0 °F - 7.0 °F 50% 30.19 in - Calm Calm - N/A   Unknown
11:56 AM 24.1 °F 19.7 °F 8.1 °F 51% 30.18 in - ESE 3.5 mph - N/A   Unknown
12:56 PM 25.0 °F 20.7 °F 8.1 °F 49% 30.17 in - ESE 3.5 mph - N/A   Unknown
1:56 PM 25.0 °F 20.7 °F 10.0 °F 53% 30.18 in - Variable 3.5 mph - N/A   Unknown
2:56 PM 25.0 °F 19.3 °F 10.9 °F 55% 30.19 in - SSE 4.6 mph - N/A   Unknown
3:56 PM 24.1 °F 18.2 °F 12.9 °F 62% 30.19 in - SSW 4.6 mph - N/A   Unknown
4:56 PM 25.0 °F 17.1 °F 15.1 °F 66% 30.18 in - SSW 6.9 mph - N/A   Unknown
5:56 PM 27.0 °F 15.6 °F 17.1 °F 66% 30.17 in - SSW 13.8 mph - N/A   Unknown
6:56 PM 28.0 °F 17.0 °F 19.0 °F 69% 30.14 in - SSW 13.8 mph - N/A   Unknown
7:56 PM 28.9 °F 16.9 °F 19.0 °F 67% 30.14 in - SW 17.3 mph 21.9 mph N/A   Unknown
8:56 PM 28.9 °F 17.3 °F 19.9 °F 69% 30.12 in - SSW 16.1 mph - N/A   Unknown
9:56 PM 30.0 °F 18.7 °F 19.9 °F 66% 30.10 in - SSW 16.1 mph - N/A   Unknown
10:56 PM 30.0 °F 18.7 °F 19.9 °F 66% 30.07 in - SSW 16.1 mph - N/A   Unknown
11:56 PM 30.0 °F 17.9 °F 19.9 °F 66% 30.03 in - SSW 18.4 mph - N/A   Unknown